Location: Newark
(57.2833°N, 52.7500°E)
Time: 06:54:20
(UTC+00:00)

N. Korean satellite - Visible Passes

Search period start: 16 October 2019 00:00
Search period end: 26 October 2019 00:00
Orbit: 455 x 508 km, 97.2° (Epoch: 15 October)

Date Brightness Start Highest point End Pass type
(mag) Time Alt. Az. Time Alt. Az. Time Alt. Az.
16 Oct 9.4 01:45:36 10° NE 01:48:29 23° E 01:51:24 10° SSE visible
16 Oct 8.8 14:02:24 10° SSW 14:05:30 31° W 14:08:37 10° NNW visible
17 Oct 10.1 01:21:02 10° NE 01:22:57 14° E 01:24:53 10° ESE visible
18 Oct 10.2 14:47:04 10° WSW 14:48:41 13° W 14:50:18 10° WNW visible
19 Oct 8.7 02:02:50 10° NNE 02:06:07 33° E 02:09:26 10° SSE visible
19 Oct 9.5 14:20:25 10° SW 14:23:07 21° W 14:25:51 10° NW visible
20 Oct 9.7 01:37:56 10° NE 01:40:39 20° E 01:43:23 10° SE visible
20 Oct 8.4 13:54:25 10° SSW 13:57:38 36° W 14:00:54 10° NNW visible
21 Oct 10.3 01:13:35 10° ENE 01:15:04 12° E 01:16:34 10° ESE visible
22 Oct 7.7 02:20:10 10° NNE 02:23:42 49° E 02:27:15 10° S visible
22 Oct 10.0 14:38:41 10° SW 14:40:45 15° W 14:42:52 10° NW visible
23 Oct 9.0 01:55:05 10° NNE 01:58:16 28° E 02:01:28 10° SSE visible
23 Oct 9.2 14:12:18 10° SSW 14:15:12 25° W 14:18:10 10° NW visible
24 Oct 9.9 01:30:15 10° NE 01:32:45 17° E 01:35:16 10° SE visible
24 Oct 7.9 13:46:25 10° S 13:49:44 44° W 13:53:08 10° NNW visible
25 Oct 10.5 01:06:25 10° ENE 01:07:09 10° E 01:07:52 10° E visible
25 Oct 6.9 02:37:33 10° NNE 02:41:13 75° ESE 02:44:54 10° S visible
25 Oct 10.5 14:57:44 10° W 14:58:26 10° W 14:59:08 10° WNW visible
